Location: Silverdale
(47.6506°N, 122.6941°W)
Time: 13:02:25
(UTC+00:00)

Vanguard 1 Rocket - Visible Passes

Search period start: 05 October 2022 00:00
Search period end: 15 October 2022 00:00
Orbit: 650 x 4225 km, 34.3° (Epoch: 04 October)

Date Brightness Start Highest point End Pass type
(mag) Time Alt. Az. Time Alt. Az. Time Alt. Az.
05 Oct 10.1 02:39:13 10° SW 02:58:58 38° SSE 03:08:48 18° ESE visible
05 Oct 9.5 05:09:27 10° WSW 05:26:04 45° S 05:26:04 45° S visible
05 Oct 10.8 07:41:20 10° W 07:43:20 14° WSW 07:43:20 14° WSW visible
06 Oct 9.6 03:54:27 10° WSW 04:14:02 46° S 04:18:41 36° SE visible
06 Oct 10.1 06:26:17 10° W 06:35:57 31° SW 06:35:57 31° SW visible
07 Oct 10.1 02:39:56 10° SW 03:01:04 43° SSE 03:11:17 19° ESE visible
07 Oct 9.6 05:11:01 10° WSW 05:28:33 46° S 05:28:33 46° S visible
07 Oct 10.8 07:43:31 10° W 07:45:48 14° WSW 07:45:48 14° WSW visible
08 Oct 9.6 03:55:45 10° WSW 04:16:13 49° S 04:21:07 38° SE visible
08 Oct 10.2 06:28:10 10° W 06:38:22 31° WSW 06:38:22 31° WSW visible
09 Oct 10.1 02:40:54 10° SW 03:03:08 47° S 03:13:40 21° ESE visible
09 Oct 9.6 05:12:40 10° WSW 05:30:52 46° SSW 05:30:56 46° SSW visible
09 Oct 10.9 07:45:50 10° W 07:48:11 14° WSW 07:48:11 14° WSW visible
10 Oct 10.6 01:26:55 10° SW 01:49:36 43° SSE 02:05:01 10° E visible
10 Oct 9.7 03:57:11 10° WSW 04:18:21 51° S 04:23:28 39° SE visible
10 Oct 10.3 06:30:05 10° W 06:40:43 30° WSW 06:40:43 30° WSW visible
11 Oct 10.1 02:42:06 10° WSW 03:05:09 51° S 03:16:00 22° ESE visible
11 Oct 9.7 05:14:22 10° W 05:32:57 45° SSW 05:33:15 45° SSW visible
11 Oct 11.0 07:48:21 10° W 07:50:31 13° W 07:50:31 13° W visible
12 Oct 10.6 01:27:49 10° SW 01:51:27 47° SSE 02:07:39 10° E visible
12 Oct 9.7 03:58:43 10° WSW 04:20:25 51° S 04:25:47 39° SE visible
12 Oct 10.4 06:32:06 10° W 06:43:02 29° WSW 06:43:02 29° WSW visible
13 Oct 10.2 02:43:28 10° WSW 03:07:09 53° S 03:18:18 23° ESE visible
13 Oct 9.9 05:16:08 10° W 05:34:56 43° SSW 05:35:33 43° SSW visible
13 Oct 11.1 07:51:13 10° W 07:52:49 12° WSW 07:52:49 12° WSW visible
14 Oct 10.7 01:28:59 10° SW 01:53:18 51° SSE 02:10:12 10° E visible
14 Oct 9.8 04:00:21 10° W 04:22:25 51° SSW 04:28:05 39° SSE visible
14 Oct 10.5 06:34:12 10° W 06:45:20 27° WSW 06:45:20 27° WSW visible
